Location: Buch
(49.7331°N, 12.1098°E)
Time: 01:27:00
(UTC+00:00)

SPOT 3 Rocket - Pass Details

Date: 12 May 2021
Orbit: 779 x 794 km, 98.7° (Epoch: 23 June)

Event Time Altitude Azimuth Distance (km) Brightness Sun altitude
Exits shadow 19:25:58 - 154° (SSE) 2,847 5.9 -6.2°
Reaches altitude 10° 19:27:15 10° 153° (SSE) 2,333 5.4 -6.3°
Maximum altitude 19:32:22 69° 71° (ENE) 839 3.6 -7.0°
Drops below altitude 10° 19:37:30 10° 349° (N) 2,346 6.9 -7.6°
Sets 19:39:50 0° 347° (NNW) 3,278 7.7 -7.9°
